Temp
-10 -11 -11 -11 -10 -10 -10 -10 -10 -10 -10 -9 -9 -9 -9 -8 -8 -8 -7 -7 -7 -6 -6 -6 -6 -6 -6 -6 -6 -6 -5 -5 -5 -5 -5 -6 -6 -6 -6 -6 -6 -6 -6 -6 -6 -6 -6 -7 -7 -6 -6 -6 -6 -6 -6 -6 -6 -6 -6 -6 -6 -6 -5
-11 -11 -11 -11 -10 -10 -10 -10 -10 -10 -10 -9 -9 -9 -9 -9 -9 -8 -7 -7 -7 -7 -7 -7 -7 -7 -6 -6 -6 -6 -5 -5 -5 -5 -5 -5 -6 -6 -6 -6 -7 -7 -6 -6 -6 -6 -6 -6 -7 -6 -6 -6 -6 -6 -6 -6 -6 -6 -6 -6 -6 -6 -6
-11 -11 -11 -11 -11 -10 -10 -10 -10 -10 -10 -9 -9 -9 -9 -9 -9 -8 -8 -7 -7 -7 -7 -7 -7 -7 -6 -6 -6 -6 -6 -5 -5 -5 -5 -5 -5 -6 -6 -6 -6 -6 -6 -6 -6 -6 -7 -6 -7 -6 -6 -6 -6 -6 -6 -6 -6 -6 -6 -6 -6 -6 -6
-11 -11 -11 -11 -11 -10 -10 -10 -10 -10 -10 -9 -9 -9 -9 -9 -9 -8 -8 -7 -7 -7 -7 -7 -7 -7 -6 -6 -6 -6 -6 -6 -5 -5 -5 -6 -6 -6 -6 -6 -6 -6 -6 -6 -6 -6 -6 -6 -7 -7 -6 -6 -6 -6 -6 -6 -6 -6 -6 -6 -6 -6 -6
-11 -11 -11 -11 -11 -10 -10 -10 -10 -10 -10 -10 -9 -9 -9 -9 -9 -9 -8 -8 -8 -8 -7 -7 -7 -7 -6 -6 -6 -6 -6 -6 -6 -5 -5 -6 -6 -6 -6 -6 -6 -6 -6 -6 -6 -6 -6 -6 -6 -6 -6 -6 -6 -6 -5 -5 -6 -6 -6 -6 -6 -6 -6
-12 -11 -11 -11 -11 -11 -10 -10 -10 -10 -10 -10 -10 -9 -9 -9 -9 -9 -9 -8 -8 -8 -8 -7 -7 -7 -6 -6 -6 -6 -6 -6 -6 -6 -6 -6 -6 -6 -6 -6 -6 -6 -6 -6 -6 -6 -6 -6 -6 -6 -6 -6 -6 -6 -6 -6 -5 -6 -6 -6 -6 -6 -6
-12 -11 -11 -12 -12 -11 -11 -11 -10 -10 -10 -10 -10 -9 -9 -9 -9 -9 -9 -9 -8 -8 -7 -7 -7 -7 -7 -6 -7 -7 -7 -7 -7 -6 -6 -6 -6 -6 -6 -6 -6 -6 -6 -6 -6 -6 -6 -6 -6 -7 -7 -6 -6 -6 -6 -6 -6 -6 -6 -6 -6 -6 -6
-12 -12 -12 -12 -12 -12 -11 -11 -11 -11 -10 -10 -10 -9 -9 -9 -9 -9 -9 -9 -9 -8 -8 -7 -7 -7 -7 -7 -7 -7 -7 -7 -7 -6 -6 -6 -6 -6 -6 -6 -6 -6 -6 -6 -6 -6 -6 -6 -6 -6 -7 -7 -6 -6 -6 -6 -6 -6 -6 -6 -6 -6 -6
-12 -12 -12 -12 -12 -12 -11 -11 -11 -11 -10 -10 -10 -10 -10 -10 -9 -9 -9 -9 -9 -9 -8 -8 -7 -7 -7 -7 -7 -6 -7 -7 -7 -6 -6 -6 -7 -7 -6 -6 -6 -6 -6 -6 -6 -6 -6 -6 -6 -6 -6 -7 -6 -6 -7 -7 -6 -6 -6 -6 -6 -6 -6
-12 -12 -12 -12 -12 -12 -12 -11 -11 -11 -11 -10 -10 -10 -10 -10 -10 -9 -9 -9 -9 -8 -8 -8 -8 -8 -8 -7 -7 -7 -7 -7 -7 -7 -7 -7 -7 -7 -7 -6 -6 -6 -6 -6 -6 -6 -6 -6 -6 -6 -6 -6 -6 -6 -7 -7 -7 -6 -6 -6 -6 -6 -6
-12 -12 -12 -11 -11 -12 -12 -12 -11 -11 -11 -11 -10 -10 -10 -10 -10 -9 -9 -9 -9 -8 -8 -8 -8 -8 -7 -8 -8 -7 -7 -7 -7 -7 -7 -7 -7 -7 -7 -7 -6 -6 -6 -6 -6 -6 -6 -6 -6 -6 -6 -6 -6 -6 -7 -7 -7 -6 -6 -6 -5 -5 -6
-12 -12 -11 -11 -11 -12 -12 -12 -11 -11 -11 -11 -10 -10 -10 -10 -10 -10 -9 -9 -9 -8 -8 -8 -8 -8 -7 -8 -8 -8 -8 -8 -8 -8 -7 -7 -7 -7 -7 -7 -7 -7 -7 -7 -6 -6 -6 -6 -6 -6 -6 -6 -6 -6 -7 -7 -7 -6 -6 -6 -6 -6 -5
-13 -12 -12 -11 -11 -11 -12 -12 -12 -12 -11 -11 -11 -11 -11 -10 -10 -10 -10 -9 -9 -9 -8 -8 -8 -8 -7 -8 -8 -8 -8 -8 -8 -8 -8 -8 -7 -8 -8 -8 -8 -7 -7 -7 -7 -7 -6 -6 -6 -6 -6 -6 -6 -7 -7 -7 -7 -6 -6 -6 -6 -6 -6
-13 -12 -12 -11 -11 -12 -12 -12 -12 -12 -11 -11 -11 -11 -11 -11 -10 -10 -10 -10 -9 -9 -9 -9 -9 -8 -8 -8 -9 -9 -9 -8 -8 -8 -8 -8 -8 -8 -8 -8 -8 -8 -8 -7 -7 -7 -7 -7 -7 -7 -7 -7 -7 -7 -7 -7 -6 -7 -6 -6 -6 -6 -6
-13 -13 -12 -12 -12 -12 -12 -12 -12 -12 -11 -11 -11 -11 -11 -11 -10 -10 -10 -10 -10 -10 -9 -9 -9 -9 -9 -9 -9 -9 -9 -9 -9 -9 -9 -9 -8 -8 -8 -8 -8 -8 -8 -8 -8 -8 -7 -7 -7 -7 -7 -7 -7 -7 -7 -7 -6 -7 -7 -7 -7 -7 -6
-13 -13 -13 -12 -12 -12 -12 -12 -12 -11 -11 -11 -11 -11 -11 -11 -10 -10 -10 -10 -10 -10 -10 -10 -9 -9 -9 -9 -10 -10 -10 -9 -9 -9 -9 -9 -9 -9 -8 -8 -9 -8 -8 -8 -8 -8 -8 -7 -7 -7 -7 -7 -7 -7 -7 -7 -6 -6 -7 -7 -7 -7 -7
-14 -14 -14 -13 -13 -12 -12 -12 -12 -11 -11 -11 -11 -11 -11 -11 -11 -10 -10 -10 -10 -10 -10 -10 -10 -9 -9 -10 -10 -10 -10 -9 -10 -10 -9 -9 -9 -9 -9 -9 -9 -9 -8 -8 -8 -8 -8 -8 -8 -8 -8 -8 -7 -8 -8 -7 -7 -7 -7 -7 -7 -6 -7
-14 -14 -14 -14 -14 -13 -12 -12 -12 -12 -11 -11 -11 -11 -11 -11 -11 -11 -11 -10 -10 -10 -10 -10 -10 -10 -10 -10 -10 -10 -10 -10 -10 -10 -10 -9 -9 -9 -9 -9 -9 -9 -9 -8 -8 -8 -8 -8 -8 -8 -8 -8 -8 -8 -8 -8 -7 -7 -7 -7 -7 -7 -6
-14 -14 -14 -14 -14 -13 -13 -13 -12 -12 -12 -12 -11 -11 -11 -11 -11 -11 -11 -11 -10 -10 -10 -10 -10 -10 -10 -10 -10 -10 -10 -10 -10 -10 -10 -10 -10 -10 -10 -10 -9 -9 -9 -9 -9 -9 -9 -9 -9 -9 -9 -9 -8 -8 -8 -8 -8 -8 -8 -7 -7 -7 -7
-14 -14 -14 -14 -14 -14 -13 -13 -13 -12 -12 -12 -12 -11 -11 -11 -11 -11 -11 -11 -11 -11 -11 -11 -11 -10 -10 -10 -10 -10 -10 -10 -10 -10 -10 -10 -10 -10 -10 -10 -10 -10 -10 -10 -10 -9 -9 -9 -9 -9 -9 -9 -9 -9 -9 -8 -8 -8 -8 -7 -7 -7 -7
-14 -14 -14 -14 -14 -14 -14 -14 -13 -13 -12 -12 -12 -12 -12 -12 -12 -12 -12 -12 -11 -11 -11 -11 -11 -10 -10 -10 -10 -10 -10 -10 -10 -10 -10 -10 -10 -10 -10 -10 -10 -10 -10 -9 -10 -10 -10 -9 -9 -9 -9 -9 -9 -9 -9 -9 -9 -8 -8 -8 -8 -7 -8
-14 -14 -14 -14 -14 -14 -14 -14 -14 -13 -13 -13 -13 -13 -13 -13 -12 -12 -12 -12 -12 -12 -12 -12 -11 -11 -11 -10 -10 -10 -10 -10 -10 -10 -10 -10 -10 -10 -10 -10 -10 -10 -10 -9 -9 -9 -9 -9 -9 -9 -9 -9 -9 -9 -9 -9 -9 -9 -8 -8 -8 -8 -8
-14 -14 -14 -14 -14 -14 -14 -14 -14 -13 -13 -13 -13 -13 -13 -13 -13 -12 -12 -12 -12 -12 -12 -12 -11 -11 -11 -11 -10 -10 -10 -10 -10 -10 -10 -10 -10 -10 -10 -10 -10 -10 -10 -9 -9 -9 -9 -9 -9 -9 -9 -9 -9 -9 -9 -9 -9 -9 -8 -8 -8 -8 -8
-15 -14 -14 -14 -14 -14 -14 -14 -14 -14 -13 -13 -13 -13 -13 -13 -13 -12 -12 -12 -12 -12 -12 -12 -12 -11 -11 -11 -11 -10 -10 -10 -10 -11 -11 -11 -11 -10 -10 -10 -10 -10 -10 -10 -9 -9 -9 -9 -9 -9 -9 -9 -9 -9 -9 -8 -8 -8 -8 -8 -8 -8 -8
-15 -15 -15 -14 -14 -14 -14 -14 -14 -14 -14 -13 -13 -13 -13 -13 -13 -13 -12 -12 -12 -12 -12 -12 -12 -12 -12 -12 -11 -11 -11 -11 -11 -11 -11 -11 -11 -11 -11 -11 -11 -11 -10 -10 -10 -10 -10 -9 -9 -9 -9 -9 -9 -9 -9 -9 -8 -8 -8 -8 -8 -8 -8
-15 -15 -15 -14 -14 -14 -14 -14 -14 -14 -14 -14 -14 -14 -13 -13 -13 -13 -13 -13 -13 -13 -12 -12 -12 -12 -12 -12 -12 -12 -12 -12 -12 -12 -12 -12 -11 -11 -11 -11 -11 -11 -10 -10 -10 -10 -10 -10 -10 -9 -9 -9 -9 -9 -9 -9 -9 -9 -8 -8 -8 -8 -8
-15 -15 -15 -14 -14 -14 -14 -15 -15 -15 -15 -15 -15 -14 -14 -14 -14 -13 -13 -13 -13 -13 -13 -13 -12 -12 -12 -12 -12 -12 -12 -12 -12 -12 -12 -12 -11 -11 -11 -11 -11 -11 -10 -10 -10 -10 -10 -10 -10 -10 -10 -10 -9 -9 -9 -9 -9 -9 -9 -9 -9 -9 -8
-15 -15 -15 -15 -15 -14 -14 -15 -15 -15 -15 -15 -15 -15 -15 -15 -14 -14 -14 -14 -13 -13 -13 -13 -13 -13 -12 -12 -12 -12 -12 -12 -12 -12 -12 -12 -12 -11 -11 -11 -11 -11 -11 -11 -11 -11 -10 -10 -10 -10 -10 -10 -10 -10 -9 -9 -9 -9 -9 -9 -9 -9 -9
-15 -15 -15 -15 -15 -15 -15 -15 -15 -15 -15 -15 -15 -15 -15 -15 -15 -14 -14 -14 -14 -14 -14 -13 -13 -13 -13 -13 -12 -12 -12 -12 -12 -12 -12 -12 -12 -12 -12 -11 -11 -11 -11 -11 -11 -11 -11 -10 -10 -10 -10 -10 -10 -10 -10 -10 -9 -9 -9 -9 -9 -9 -9
-15 -15 -15 -15 -15 -15 -15 -15 -15 -15 -15 -15 -15 -15 -15 -15 -15 -15 -15 -14 -14 -14 -14 -14 -14 -14 -13 -13 -13 -13 -13 -13 -12 -12 -12 -12 -12 -12 -12 -12 -12 -12 -11 -11 -11 -11 -11 -11 -11 -10 -10 -10 -10 -10 -10 -10 -9 -9 -9 -9 -9 -9 -9
-15 -15 -15 -15 -15 -15 -15 -15 -15 -15 -15 -15 -15 -15 -15 -15 -15 -15 -15 -15 -15 -15 -15 -15 -15 -14 -14 -14 -13 -13 -13 -13 -13 -13 -13 -12 -12 -13 -13 -13 -13 -12 -12 -12 -11 -11 -11 -11 -11 -11 -11 -10 -10 -10 -10 -10 -10 -10 -9 -9 -9 -9 -9
-16 -15 -15 -15 -15 -15 -15 -15 -15 -15 -15 -16 -16 -16 -16 -16 -15 -15 -15 -15 -15 -15 -15 -15 -15 -15 -14 -14 -14 -14 -14 -14 -14 -13 -13 -13 -13 -13 -13 -13 -13 -13 -13 -12 -12 -12 -12 -12 -12 -12 -11 -11 -11 -10 -10 -10 -10 -10 -10 -10 -10 -9 -9
-16 -16 -15 -15 -15 -15 -15 -15 -15 -16 -16 -16 -16 -16 -16 -16 -16 -16 -16 -16 -16 -15 -15 -15 -15 -15 -15 -15 -14 -14 -14 -14 -14 -14 -14 -13 -13 -13 -13 -13 -13 -13 -13 -13 -13 -13 -13 -13 -12 -12 -12 -12 -11 -11 -11 -11 -10 -10 -10 -10 -10 -10 -10
-16 -16 -16 -16 -16 -15 -15 -15 -16 -16 -16 -16 -16 -16 -16 -16 -16 -16 -16 -16 -16 -16 -16 -16 -15 -15 -15 -15 -15 -15 -15 -15 -14 -14 -14 -14 -14 -14 -14 -14 -13 -13 -13 -13 -13 -13 -13 -13 -13 -13 -12 -12 -12 -12 -12 -11 -11 -11 -11 -10 -10 -10 -10
-16 -16 -16 -16 -16 -16 -16 -16 -16 -16 -16 -16 -16 -16 -16 -16 -16 -16 -16 -16 -16 -16 -16 -16 -16 -16 -15 -15 -15 -15 -15 -15 -15 -15 -14 -14 -14 -14 -14 -14 -14 -14 -13 -13 -13 -13 -13 -13 -13 -13 -13 -13 -13 -12 -12 -12 -12 -12 -11 -11 -11 -11 -11
-16 -16 -17 -17 -17 -16 -16 -16 -16 -16 -16 -16 -16 -16 -16 -16 -16 -16 -16 -16 -16 -16 -16 -16 -16 -16 -16 -16 -16 -16 -15 -15 -15 -15 -15 -15 -15 -15 -15 -15 -14 -14 -14 -14 -14 -14 -13 -13 -13 -13 -13 -13 -13 -13 -13 -13 -12 -12 -12 -12 -12 -12 -11
-16 -16 -16 -17 -16 -16 -16 -16 -16 -16 -16 -16 -16 -16 -16 -16 -16 -16 -16 -16 -16 -16 -16 -16 -16 -16 -16 -16 -16 -16 -16 -15 -15 -15 -15 -15 -15 -15 -15 -15 -15 -14 -14 -15 -14 -14 -14 -14 -14 -14 -14 -13 -13 -13 -13 -13 -13 -13 -13 -12 -12 -12 -12
Height
5838 5840 5843 5846 5849 5853 5855 5856 5859 5862 5863 5866 5870 5871 5871 5871 5873 5874 5876 5877 5880 5883 5884 5885 5888 5890 5891 5892 5894 5896 5897 5897 5897 5899 5901 5903 5905 5908 5911 5914 5916 5918 5919 5920 5922 5924 5925 5927 5929 5931 5934 5935 5936 5937 5938 5939 5940 5942 5943 5945 5946 5947 5948
5836 5838 5841 5844 5847 5850 5853 5855 5858 5860 5862 5865 5869 5868 5868 5868 5869 5872 5873 5875 5878 5880 5881 5884 5886 5888 5890 5891 5893 5894 5895 5896 5896 5898 5899 5901 5904 5906 5909 5912 5914 5917 5918 5919 5921 5923 5925 5927 5928 5930 5933 5934 5936 5937 5938 5939 5940 5941 5942 5944 5945 5946 5947
5833 5835 5839 5843 5846 5849 5851 5853 5856 5858 5860 5864 5867 5866 5866 5866 5867 5870 5872 5873 5875 5878 5880 5883 5886 5887 5888 5890 5892 5894 5895 5895 5896 5897 5899 5901 5903 5906 5908 5910 5912 5914 5916 5917 5920 5923 5924 5926 5927 5929 5931 5933 5935 5936 5938 5939 5940 5941 5942 5943 5944 5945 5946
5830 5834 5837 5841 5844 5847 5850 5853 5855 5857 5859 5862 5864 5864 5864 5865 5866 5868 5870 5872 5875 5877 5879 5882 5885 5886 5887 5888 5891 5893 5895 5896 5896 5896 5898 5900 5902 5904 5906 5908 5910 5913 5914 5916 5918 5920 5921 5923 5926 5927 5929 5931 5933 5935 5937 5938 5939 5940 5942 5943 5944 5945 5946
5828 5832 5836 5839 5841 5844 5848 5852 5854 5856 5857 5859 5861 5862 5862 5862 5864 5867 5869 5871 5873 5876 5878 5880 5882 5884 5885 5887 5889 5891 5892 5894 5895 5895 5896 5898 5900 5902 5904 5907 5909 5911 5913 5915 5917 5918 5919 5922 5925 5927 5928 5929 5932 5934 5936 5937 5938 5938 5939 5941 5942 5944 5945
5827 5830 5834 5838 5839 5842 5846 5850 5852 5853 5854 5857 5858 5859 5859 5861 5863 5865 5868 5870 5871 5873 5876 5878 5879 5881 5884 5885 5887 5889 5890 5891 5893 5894 5895 5896 5898 5900 5903 5905 5907 5909 5911 5912 5914 5916 5919 5922 5925 5926 5928 5929 5930 5932 5934 5935 5936 5936 5937 5938 5940 5941 5943
5826 5830 5834 5836 5837 5839 5844 5848 5848 5849 5851 5854 5856 5857 5858 5859 5861 5863 5866 5868 5869 5870 5872 5875 5878 5881 5883 5883 5884 5887 5888 5889 5891 5894 5894 5895 5897 5899 5901 5903 5905 5907 5908 5909 5912 5915 5918 5920 5922 5924 5926 5927 5928 5928 5930 5932 5934 5935 5937 5938 5939 5939 5940
5824 5828 5831 5832 5833 5836 5841 5844 5844 5845 5848 5850 5852 5854 5856 5857 5859 5861 5863 5865 5866 5868 5871 5873 5877 5879 5880 5881 5883 5885 5886 5888 5891 5893 5893 5894 5896 5898 5900 5902 5904 5905 5906 5907 5910 5913 5915 5917 5919 5921 5923 5924 5925 5926 5929 5933 5934 5934 5935 5936 5937 5938 5939
5820 5824 5826 5828 5831 5835 5839 5841 5840 5842 5845 5847 5849 5852 5853 5855 5857 5859 5861 5863 5864 5867 5870 5873 5875 5877 5878 5880 5882 5884 5885 5887 5889 5891 5892 5892 5894 5897 5899 5901 5904 5904 5904 5906 5907 5909 5912 5914 5916 5917 5920 5922 5924 5926 5929 5932 5932 5933 5933 5934 5934 5936 5937
5817 5819 5821 5824 5827 5832 5836 5837 5837 5840 5842 5843 5846 5849 5851 5852 5854 5856 5859 5861 5863 5865 5869 5872 5874 5876 5877 5878 5880 5882 5883 5885 5886 5889 5890 5892 5894 5896 5897 5900 5902 5902 5904 5905 5905 5906 5909 5911 5913 5914 5916 5919 5921 5923 5925 5927 5929 5931 5931 5932 5933 5934 5935
5815 5817 5819 5822 5825 5829 5832 5832 5834 5836 5837 5839 5843 5845 5848 5849 5851 5854 5857 5858 5860 5863 5867 5871 5873 5875 5876 5876 5878 5880 5881 5882 5884 5886 5888 5891 5893 5895 5896 5898 5899 5900 5902 5904 5903 5905 5907 5909 5910 5911 5913 5916 5918 5920 5922 5923 5926 5929 5929 5929 5930 5931 5932
5814 5816 5818 5821 5824 5826 5828 5829 5831 5832 5833 5837 5840 5843 5845 5847 5849 5852 5854 5855 5858 5861 5865 5869 5872 5874 5874 5874 5875 5877 5879 5880 5882 5884 5886 5888 5891 5893 5895 5896 5897 5898 5899 5901 5902 5904 5906 5908 5909 5910 5912 5914 5916 5919 5920 5921 5924 5926 5927 5927 5927 5927 5928
5811 5815 5818 5820 5822 5824 5825 5827 5828 5830 5832 5835 5839 5841 5843 5846 5848 5850 5852 5854 5857 5860 5864 5867 5869 5872 5873 5872 5872 5875 5877 5878 5880 5882 5883 5886 5889 5891 5893 5894 5895 5896 5897 5899 5901 5903 5905 5907 5908 5909 5910 5912 5914 5917 5918 5920 5921 5923 5924 5925 5926 5927 5927
5809 5814 5816 5817 5819 5821 5822 5824 5826 5829 5831 5835 5837 5839 5840 5843 5846 5848 5850 5853 5854 5857 5861 5864 5867 5869 5871 5871 5872 5873 5875 5877 5879 5880 5881 5884 5887 5889 5891 5892 5893 5894 5895 5897 5899 5901 5903 5905 5906 5907 5908 5909 5912 5914 5916 5918 5919 5919 5921 5922 5923 5925 5926
5809 5812 5814 5815 5817 5819 5821 5823 5825 5826 5829 5833 5836 5837 5839 5842 5843 5845 5848 5850 5852 5855 5859 5862 5865 5867 5869 5871 5871 5872 5874 5876 5878 5879 5880 5882 5884 5887 5889 5891 5892 5893 5893 5894 5896 5898 5900 5901 5903 5905 5906 5908 5910 5912 5914 5915 5915 5916 5917 5919 5920 5922 5922
5808 5810 5812 5814 5816 5819 5822 5823 5824 5825 5828 5832 5834 5835 5838 5840 5842 5844 5846 5848 5850 5853 5857 5860 5862 5864 5867 5869 5870 5870 5872 5874 5876 5877 5878 5879 5881 5884 5886 5888 5889 5890 5891 5892 5894 5895 5897 5899 5901 5902 5903 5906 5908 5909 5910 5912 5913 5914 5915 5916 5918 5919 5920
5806 5807 5809 5812 5815 5819 5822 5823 5824 5824 5826 5830 5832 5833 5836 5838 5840 5843 5845 5847 5848 5851 5854 5857 5859 5861 5864 5867 5868 5869 5871 5873 5874 5875 5876 5878 5879 5881 5883 5884 5886 5887 5888 5890 5892 5893 5895 5897 5899 5900 5901 5902 5904 5905 5906 5909 5911 5911 5912 5914 5915 5916 5918
5804 5805 5807 5810 5814 5817 5819 5821 5822 5822 5823 5827 5829 5831 5834 5836 5838 5840 5842 5844 5846 5848 5851 5853 5856 5858 5860 5863 5866 5868 5869 5871 5873 5874 5875 5876 5877 5879 5880 5881 5883 5884 5886 5888 5890 5891 5892 5894 5896 5898 5899 5899 5900 5902 5904 5906 5908 5909 5910 5912 5913 5913 5914
5801 5802 5805 5808 5811 5812 5815 5818 5820 5820 5822 5825 5826 5828 5832 5833 5834 5837 5839 5841 5843 5845 5847 5849 5851 5854 5857 5860 5863 5866 5868 5870 5871 5872 5874 5875 5876 5877 5878 5879 5880 5881 5883 5885 5887 5888 5890 5891 5893 5895 5896 5897 5898 5899 5900 5903 5905 5907 5909 5910 5911 5912 5912
5798 5800 5803 5806 5807 5808 5811 5814 5816 5818 5821 5822 5823 5825 5828 5830 5831 5834 5836 5838 5840 5842 5843 5844 5847 5850 5854 5857 5860 5863 5866 5868 5869 5870 5871 5873 5874 5874 5875 5877 5878 5879 5880 5881 5883 5884 5886 5887 5889 5891 5893 5894 5895 5896 5897 5899 5901 5904 5906 5908 5909 5910 5911
5795 5797 5800 5802 5804 5805 5807 5810 5813 5816 5818 5819 5820 5822 5825 5826 5827 5829 5832 5834 5836 5838 5839 5840 5842 5846 5850 5853 5856 5859 5862 5865 5867 5867 5868 5869 5870 5872 5873 5874 5875 5876 5877 5878 5879 5880 5881 5883 5885 5887 5889 5891 5892 5893 5894 5896 5898 5900 5902 5904 5906 5907 5908
5792 5795 5797 5799 5801 5802 5804 5807 5810 5813 5815 5815 5816 5819 5820 5821 5823 5825 5827 5830 5831 5833 5835 5837 5839 5841 5844 5848 5851 5855 5859 5862 5864 5865 5864 5864 5866 5868 5869 5871 5872 5873 5873 5875 5876 5876 5877 5879 5880 5882 5885 5887 5888 5890 5891 5892 5894 5895 5897 5899 5901 5903 5904
5790 5792 5793 5796 5798 5800 5802 5805 5807 5809 5811 5812 5814 5815 5816 5818 5820 5821 5824 5826 5828 5829 5832 5833 5835 5837 5839 5842 5846 5850 5854 5858 5860 5860 5860 5860 5861 5863 5864 5866 5867 5868 5869 5871 5873 5873 5874 5875 5876 5878 5880 5882 5884 5886 5887 5889 5890 5891 5893 5894 5896 5898 5900
5787 5788 5790 5792 5795 5798 5800 5802 5804 5805 5807 5809 5811 5811 5812 5814 5817 5819 5821 5823 5824 5826 5827 5829 5831 5833 5834 5837 5841 5845 5849 5852 5854 5855 5856 5855 5855 5856 5859 5861 5862 5863 5864 5866 5868 5869 5870 5871 5872 5874 5875 5877 5879 5880 5882 5884 5886 5887 5888 5890 5892 5893 5895
5785 5786 5788 5790 5792 5795 5797 5800 5800 5801 5803 5805 5805 5806 5808 5812 5813 5815 5818 5820 5821 5822 5824 5826 5828 5829 5829 5833 5837 5839 5842 5845 5847 5849 5850 5850 5849 5851 5853 5854 5856 5857 5858 5860 5862 5864 5865 5867 5868 5869 5870 5872 5873 5875 5876 5878 5880 5882 5884 5885 5887 5888 5889
5783 5784 5786 5787 5789 5792 5794 5796 5797 5798 5799 5799 5800 5802 5804 5807 5808 5810 5813 5815 5816 5818 5820 5822 5824 5825 5826 5829 5832 5833 5835 5837 5840 5841 5842 5843 5844 5846 5846 5847 5849 5852 5854 5856 5858 5859 5860 5861 5863 5864 5865 5866 5868 5870 5870 5871 5873 5875 5877 5879 5881 5882 5884
5781 5782 5783 5785 5787 5789 5791 5792 5794 5795 5795 5796 5797 5799 5800 5801 5803 5805 5806 5808 5810 5812 5814 5817 5819 5819 5821 5823 5825 5826 5829 5831 5833 5834 5835 5837 5839 5841 5841 5841 5844 5847 5849 5851 5853 5854 5855 5856 5858 5860 5861 5862 5863 5865 5866 5867 5868 5869 5871 5873 5874 5876 5878
5779 5780 5781 5783 5784 5785 5787 5789 5790 5791 5792 5793 5795 5796 5797 5798 5799 5800 5801 5802 5804 5806 5808 5811 5813 5814 5816 5818 5820 5822 5824 5826 5827 5828 5829 5831 5833 5835 5836 5837 5839 5841 5843 5845 5847 5849 5850 5851 5853 5855 5856 5857 5858 5860 5861 5863 5864 5865 5866 5867 5868 5870 5872
5778 5779 5780 5781 5782 5782 5784 5785 5786 5787 5789 5790 5791 5792 5793 5795 5795 5796 5797 5798 5799 5800 5802 5804 5806 5807 5810 5813 5815 5817 5818 5820 5821 5822 5824 5825 5826 5828 5830 5831 5833 5834 5835 5837 5839 5841 5844 5847 5848 5849 5850 5851 5852 5853 5855 5857 5859 5860 5862 5863 5864 5865 5867
5775 5776 5777 5778 5779 5779 5780 5781 5782 5783 5785 5786 5787 5788 5789 5790 5791 5792 5793 5793 5794 5795 5796 5797 5798 5801 5804 5806 5808 5810 5812 5814 5815 5817 5818 5819 5820 5822 5824 5825 5826 5827 5828 5829 5831 5834 5837 5839 5841 5842 5844 5845 5846 5847 5849 5851 5853 5855 5856 5857 5859 5860 5861
5772 5773 5774 5775 5776 5776 5777 5777 5778 5780 5782 5783 5783 5784 5785 5786 5787 5788 5788 5789 5790 5790 5791 5792 5793 5794 5797 5799 5801 5803 5805 5807 5809 5810 5812 5813 5815 5817 5818 5818 5819 5820 5821 5823 5825 5827 5829 5830 5832 5834 5836 5837 5839 5841 5843 5844 5846 5847 5849 5850 5852 5853 5855
5768 5769 5770 5771 5772 5772 5773 5774 5775 5777 5778 5779 5780 5781 5781 5782 5783 5783 5784 5784 5785 5785 5786 5787 5788 5790 5792 5793 5794 5796 5798 5800 5802 5803 5805 5807 5809 5810 5811 5812 5812 5813 5815 5817 5819 5820 5821 5821 5823 5825 5827 5830 5832 5834 5835 5837 5838 5840 5841 5842 5844 5845 5846
5764 5765 5765 5766 5767 5767 5768 5770 5771 5772 5773 5775 5776 5777 5778 5778 5779 5779 5779 5779 5780 5781 5782 5783 5785 5786 5787 5788 5789 5791 5792 5793 5795 5797 5799 5800 5802 5803 5804 5804 5805 5806 5809 5811 5812 5813 5813 5814 5816 5818 5820 5822 5824 5826 5827 5829 5831 5832 5833 5834 5836 5837 5838
5760 5760 5760 5761 5761 5762 5763 5765 5766 5766 5767 5769 5770 5771 5772 5773 5774 5775 5775 5775 5775 5776 5776 5778 5780 5782 5782 5783 5784 5785 5786 5787 5789 5791 5792 5794 5796 5797 5797 5797 5798 5800 5802 5803 5804 5805 5807 5808 5810 5812 5813 5814 5815 5817 5820 5821 5822 5824 5825 5827 5828 5830 5831
5755 5756 5756 5755 5756 5756 5757 5758 5759 5760 5761 5762 5764 5765 5766 5767 5768 5769 5770 5770 5771 5771 5771 5772 5774 5776 5777 5777 5778 5778 5779 5781 5782 5784 5786 5788 5789 5789 5790 5791 5793 5795 5795 5795 5795 5797 5799 5802 5804 5805 5805 5805 5807 5809 5811 5812 5814 5816 5818 5819 5820 5821 5823
5751 5751 5751 5751 5751 5751 5751 5751 5752 5753 5754 5755 5757 5759 5760 5761 5762 5763 5764 5765 5765 5766 5767 5767 5769 5770 5771 5771 5771 5772 5773 5775 5776 5778 5780 5780 5781 5781 5782 5785 5787 5789 5789 5788 5788 5789 5793 5795 5796 5797 5797 5798 5800 5801 5802 5804 5806 5808 5810 5811 5812 5813 5815
5746 5746 5746 5746 5747 5747 5746 5746 5746 5747 5747 5748 5749 5751 5753 5754 5755 5756 5758 5758 5759 5760 5761 5762 5763 5764 5765 5765 5765 5766 5767 5769 5770 5771 5772 5772 5772 5773 5775 5778 5780 5782 5782 5781 5782 5784 5787 5787 5788 5789 5790 5792 5793 5794 5795 5796 5798 5799 5801 5802 5803 5805 5806
Wind_Speed
34 33 33 36 39 40 41 44 42 38 36 33 24 15 14 18 20 23 25 25 23 22 21 20 17 12 12 13 12 13 12 11 18 27 29 30 33 31 27 26 25 23 22 22 22 22 22 21 20 21 21 21 20 20 19 19 18 16 15 14 13 13 14
33 34 33 34 38 42 43 44 43 39 37 35 27 20 19 20 21 22 24 25 24 23 23 19 14 12 12 12 13 14 14 13 15 23 28 30 31 31 29 28 28 24 21 21 22 21 20 20 20 21 21 21 20 19 19 18 18 17 16 15 14 14 14
32 35 35 34 34 38 42 43 43 39 36 35 33 28 25 23 22 21 23 26 25 23 22 18 15 13 13 12 12 13 15 15 14 18 25 28 28 28 29 28 27 25 22 21 22 21 19 19 19 20 20 20 20 19 19 18 18 16 15 14 14 14 14
33 35 35 34 33 34 38 40 42 41 37 36 36 33 31 30 26 23 22 24 23 22 21 18 15 15 13 11 11 13 14 15 16 16 20 25 27 27 29 28 27 27 25 23 22 22 21 21 20 20 21 21 21 20 19 19 18 16 14 13 12 13 14
34 35 33 33 33 33 34 36 40 41 39 39 38 35 34 33 30 26 24 22 21 22 22 20 19 18 17 14 13 15 14 14 16 16 17 22 26 28 29 29 29 29 28 25 23 23 23 21 21 21 21 21 20 19 19 20 20 19 18 16 14 13 13
36 37 34 33 33 32 30 33 38 40 40 41 40 36 34 33 31 29 27 24 24 24 23 23 23 20 19 19 18 16 15 14 15 16 16 18 22 25 27 28 29 30 29 27 26 25 23 22 22 21 21 20 19 19 20 21 22 22 21 19 18 16 15
33 35 36 35 34 32 29 31 38 42 41 41 41 39 37 35 33 30 28 27 28 28 26 24 22 19 18 21 22 19 18 15 13 14 16 16 16 20 26 29 27 28 29 28 29 27 25 24 24 23 22 22 21 21 22 22 22 22 21 20 19 19 18
30 34 38 38 37 35 30 33 41 44 42 42 42 41 38 36 35 32 29 29 30 29 27 24 22 20 19 20 20 20 20 18 15 15 16 16 16 17 23 27 25 24 27 29 29 28 27 27 26 25 24 23 23 22 21 21 21 22 22 23 22 22 20
30 35 39 39 39 37 33 36 43 45 44 43 41 41 39 35 35 35 32 31 31 30 28 25 22 20 20 21 21 20 21 20 19 17 16 17 18 17 19 23 23 20 22 27 29 29 29 28 27 27 26 25 24 22 22 23 23 23 23 24 24 23 21
29 34 39 39 39 37 36 37 41 44 46 44 40 40 40 35 34 36 34 33 34 33 30 26 21 19 19 21 22 22 23 22 20 19 18 17 18 18 18 21 22 20 18 21 26 27 27 27 27 28 28 27 27 25 25 27 27 25 25 25 25 23 21
28 31 36 39 39 39 38 38 39 41 45 46 44 43 42 37 35 35 34 34 36 37 33 27 22 19 18 21 23 23 24 24 21 20 19 19 19 19 19 19 22 23 21 20 21 21 21 23 27 28 28 27 27 27 27 28 28 27 26 26 27 26 24
29 29 31 35 38 41 41 39 39 39 40 43 44 44 43 42 38 36 35 35 36 37 35 30 24 20 21 25 26 23 22 23 22 20 19 20 21 20 20 19 20 23 23 21 21 21 20 21 24 24 24 24 24 24 25 25 26 27 27 27 27 28 26
31 30 29 31 37 43 45 41 39 39 39 40 42 40 40 42 42 40 38 36 35 35 35 32 28 24 24 27 27 25 24 23 22 20 19 19 20 20 19 20 20 22 23 22 21 23 23 24 23 21 20 21 21 21 21 21 23 25 27 27 26 26 25
32 30 28 30 34 42 48 46 41 41 41 41 41 38 38 40 41 41 40 37 36 36 35 32 29 27 25 25 24 23 22 21 19 19 18 18 18 20 20 21 21 23 24 23 22 23 24 26 26 24 20 18 19 20 20 20 22 22 24 26 26 25 24
32 30 28 28 29 36 45 48 46 45 44 44 43 40 39 40 41 41 40 38 37 37 35 32 29 28 26 23 20 18 17 17 18 18 18 19 19 21 22 23 23 24 25 25 24 24 24 25 26 26 24 20 18 19 19 20 22 21 19 20 22 24 24
29 28 27 27 26 28 34 42 47 46 44 44 44 43 42 41 42 41 40 38 36 35 34 31 29 30 29 25 21 17 16 18 20 21 21 22 22 23 24 24 25 26 26 27 27 26 26 25 25 26 26 24 21 19 18 19 22 22 20 18 18 20 21
29 25 24 25 26 25 28 35 42 44 42 41 43 46 45 44 44 43 41 40 37 36 35 34 32 32 32 29 25 22 19 18 20 23 25 25 26 26 27 27 28 28 28 28 28 28 28 27 26 25 26 26 25 24 21 20 22 23 22 22 21 20 19
31 27 25 24 24 26 28 30 37 44 44 41 42 44 44 45 46 45 44 44 42 40 39 38 36 35 34 32 29 26 24 21 20 22 24 26 28 29 29 29 29 29 30 30 30 30 29 29 28 27 27 27 27 27 25 23 22 22 21 21 23 24 22
32 30 29 27 26 28 29 29 33 40 43 43 44 45 43 45 46 45 44 46 45 44 43 41 40 40 38 36 33 29 27 26 23 22 23 25 27 29 30 31 31 31 31 31 31 31 30 31 30 29 29 29 29 29 28 26 25 24 23 22 23 24 24
35 33 32 31 30 29 31 32 32 35 38 41 46 46 44 45 46 45 44 45 45 46 45 43 43 43 42 41 38 34 31 29 27 26 25 26 27 28 29 31 32 33 33 33 33 33 33 33 33 32 32 32 32 32 31 29 28 27 27 27 26 25 25
36 36 34 32 32 32 33 34 34 34 35 38 42 43 42 43 45 45 44 45 46 46 45 45 45 45 44 43 42 39 35 32 30 29 29 29 29 29 29 30 31 32 33 34 35 36 36 36 36 36 35 35 35 34 34 33 32 31 30 30 30 30 29
35 36 36 35 34 33 34 35 35 35 35 37 38 38 39 39 40 39 38 40 45 47 46 46 46 46 46 45 44 43 39 36 33 32 33 34 34 33 32 32 32 33 34 35 35 36 37 37 37 37 37 37 37 37 36 36 35 35 34 33 32 32 32
31 33 35 36 35 34 34 34 35 36 37 37 36 36 37 37 37 36 34 34 39 44 47 48 48 47 47 45 44 44 42 40 37 35 36 38 39 39 37 37 36 36 36 37 37 37 38 38 38 37 37 37 37 37 37 38 38 37 36 36 35 34 34
28 30 31 32 33 34 33 32 33 35 37 37 36 37 38 38 37 36 35 34 34 37 42 45 46 48 48 46 45 44 43 42 40 37 36 37 40 41 40 39 39 39 39 38 38 38 39 39 39 39 38 38 38 37 37 38 38 39 38 38 37 36 36
26 28 29 29 30 30 30 30 31 32 34 36 37 37 38 38 37 37 36 35 34 34 36 38 39 41 42 43 43 42 41 39 37 36 36 38 40 41 41 40 40 40 40 40 39 39 39 39 39 39 40 39 39 39 39 38 38 38 38 38 38 38 38
23 25 25 26 26 26 26 27 28 28 30 33 34 33 33 34 35 35 35 34 33 33 33 34 34 36 37 38 38 39 38 36 35 35 37 39 40 42 43 43 43 42 42 41 40 40 40 40 40 40 40 40 40 39 40 40 40 39 38 38 38 38 38
21 22 22 23 23 23 24 24 25 25 27 28 28 28 28 29 30 31 33 33 33 33 33 34 35 36 37 37 38 38 38 38 37 38 39 40 41 42 43 44 43 43 42 42 42 42 41 41 41 41 41 41 41 41 41 41 41 41 40 40 40 39 38
21 22 22 22 22 23 23 24 25 25 26 26 26 26 26 26 27 28 29 30 31 32 32 33 35 36 37 38 38 38 38 39 39 39 40 41 42 42 43 44 44 44 43 43 43 43 43 43 43 43 43 43 43 42 42 42 42 42 42 42 42 41 40
22 23 23 23 24 25 25 25 26 26 25 26 26 26 26 27 28 28 29 29 30 31 31 32 34 35 36 36 37 37 38 38 38 39 39 40 41 42 43 44 45 46 46 46 46 46 45 45 45 45 45 45 46 46 45 45 44 44 44 44 44 44 43
21 23 24 25 26 27 27 28 28 27 27 26 27 27 27 28 29 30 30 31 31 31 31 32 33 34 34 34 35 36 36 36 37 38 38 39 39 39 40 41 43 45 46 47 48 48 47 47 47 47 47 48 48 48 48 47 47 47 47 47 46 46 46
20 22 23 25 26 27 28 29 29 28 27 27 27 27 27 28 29 31 31 31 31 31 31 31 32 33 33 34 35 35 35 35 35 37 38 39 39 38 38 39 40 42 44 45 46 47 47 47 47 48 49 50 50 50 50 49 49 49 49 49 49 49 49
21 23 24 24 26 27 28 29 29 29 28 28 28 28 28 29 30 31 32 33 32 32 33 33 33 33 33 34 34 34 34 35 35 36 38 39 40 40 39 39 40 41 42 43 44 44 45 46 46 47 48 49 50 50 51 51 51 52 52 52 52 52 52
23 24 26 26 28 29 29 29 29 29 29 29 30 30 30 31 32 33 34 34 35 34 34 34 34 34 35 35 35 35 35 36 36 36 37 38 39 40 40 41 41 42 42 42 43 43 44 45 46 46 47 47 48 49 50 51 52 52 53 53 53 53 54
25 26 27 29 30 31 31 31 31 31 31 31 31 32 33 33 34 34 35 36 37 36 36 36 36 36 36 37 37 37 38 38 37 37 37 38 38 39 40 41 41 42 43 44 44 45 45 46 46 46 46 47 47 48 48 49 50 51 52 53 53 54 54
27 28 29 30 32 33 34 34 35 35 35 35 34 34 35 35 36 36 37 38 38 38 38 37 36 36 37 37 38 38 39 39 39 39 39 39 39 40 41 41 41 41 42 44 45 46 46 46 46 47 48 48 48 48 48 48 49 50 51 52 52 53 54
29 29 30 32 33 35 36 37 37 38 38 38 38 37 37 37 38 38 39 39 40 40 39 39 39 38 39 39 40 40 40 40 39 39 39 40 41 42 42 42 42 42 42 44 45 46 46 46 46 47 48 48 49 49 49 49 49 50 50 51 52 52 53
31 31 32 33 34 35 37 38 38 39 39 39 39 39 39 39 40 40 41 41 42 42 41 41 41 41 41 42 43 43 42 41 41 41 41 41 42 43 43 43 43 43 44 45 45 45 45 45 46 46 46 47 47 48 49 49 50 50 50 51 52 53 53
Wind_Direction
199 195 195 197 191 187 190 193 191 193 199 199 194 191 189 193 203 207 214 222 220 218 220 218 217 222 229 228 222 219 214 206 208 208 207 208 210 212 212 210 205 201 199 196 193 197 198 198 207 212 211 211 207 204 205 204 203 202 199 195 194 196 199
200 198 196 198 195 190 192 196 193 193 200 199 191 190 192 195 202 205 212 218 218 220 224 224 224 230 231 226 222 221 213 205 207 209 208 210 212 212 211 210 205 199 202 204 200 200 202 201 207 214 215 214 211 207 207 208 207 205 201 195 192 195 201
195 198 197 200 201 197 197 198 196 195 199 198 194 196 200 201 204 207 214 219 217 220 224 224 226 230 231 226 217 212 209 209 211 210 209 209 208 208 207 205 203 202 205 209 204 201 204 206 209 214 216 215 213 209 207 209 211 211 207 199 195 196 201
190 196 198 201 205 205 203 201 200 199 198 195 193 197 205 209 209 211 215 219 219 222 225 225 222 220 221 221 213 205 203 207 212 213 210 208 204 202 202 201 202 206 210 210 205 202 205 207 209 212 213 212 211 210 207 207 211 213 212 209 206 205 206
187 193 198 201 204 208 206 202 202 202 200 196 193 196 205 210 213 217 220 225 226 226 229 228 221 215 211 212 213 208 203 202 206 210 212 211 207 200 199 203 207 210 212 212 209 207 208 208 207 212 214 209 207 209 211 208 206 207 207 206 206 209 213
188 189 195 197 200 204 202 200 203 204 202 200 198 200 205 208 212 217 220 226 231 230 229 227 223 219 213 214 220 218 209 202 200 205 210 211 210 205 202 206 210 210 212 214 214 213 212 207 204 210 216 212 205 207 214 213 208 207 206 204 202 202 207
191 189 194 194 195 196 195 197 203 205 203 203 203 204 208 210 212 215 216 220 227 230 229 227 225 223 218 217 223 224 217 207 202 210 215 211 210 213 211 208 209 211 214 216 216 215 211 206 204 206 213 215 208 206 211 213 211 209 207 207 206 205 206
192 188 193 198 198 196 193 198 203 203 203 204 203 203 207 211 212 214 216 217 221 224 226 227 226 223 220 219 220 223 221 216 214 215 216 210 205 210 213 210 209 214 217 216 215 212 209 208 209 209 211 215 215 212 213 216 216 212 209 208 208 210 211
190 189 192 197 200 197 194 201 206 204 201 202 203 203 205 209 211 212 216 219 220 222 222 223 224 222 222 224 223 224 223 221 219 215 209 207 205 205 210 209 208 212 215 213 212 211 209 210 212 213 212 213 216 216 216 217 218 218 216 214 210 212 215
188 191 194 195 197 194 192 200 207 206 203 202 203 204 204 208 210 212 216 219 221 222 220 221 226 225 226 229 227 224 223 221 221 218 214 213 209 206 209 210 210 211 209 206 206 207 210 213 214 215 215 214 214 216 214 215 219 221 222 220 216 216 216
190 192 196 197 195 190 190 196 201 203 204 205 206 206 207 210 212 213 217 220 220 221 220 221 226 228 229 230 226 223 222 221 223 225 223 219 212 209 210 212 216 220 218 211 207 207 212 213 212 213 216 215 214 214 212 215 221 222 221 219 219 220 219
193 196 197 197 194 190 190 195 199 200 201 203 205 209 211 214 216 217 221 223 221 221 222 223 225 227 226 222 217 216 215 216 219 222 223 220 214 210 211 212 217 223 226 224 219 215 214 209 205 208 214 215 213 212 213 217 221 222 223 221 220 221 221
190 196 195 195 195 192 192 197 201 203 203 201 203 207 211 215 218 221 224 226 225 224 224 225 223 220 218 212 207 208 209 209 214 218 221 222 216 212 213 216 220 225 228 228 224 221 219 215 214 217 221 221 215 211 213 218 220 223 225 224 222 223 225
189 194 193 192 194 194 195 198 202 206 207 205 205 207 208 210 214 219 221 224 227 225 223 223 218 214 213 208 204 207 209 210 216 220 223 226 223 219 218 219 224 228 231 232 231 230 229 229 229 230 229 226 221 216 217 220 223 224 225 223 222 225 229
191 193 191 188 191 195 198 200 205 209 209 208 210 211 210 210 212 216 219 221 224 224 221 220 218 214 212 210 209 214 217 218 220 219 220 225 227 226 224 224 227 230 233 234 235 236 236 236 235 233 231 233 235 230 224 222 223 227 230 228 226 226 228
193 196 197 196 195 198 201 204 209 214 216 215 215 216 216 215 216 218 220 222 225 227 224 223 223 221 218 219 223 228 228 226 224 220 219 221 224 226 227 227 229 231 234 236 237 238 238 237 237 235 233 235 238 237 233 229 230 233 237 237 234 232 232
197 201 205 207 207 206 208 209 212 217 222 223 222 221 220 220 220 221 223 225 228 231 229 228 228 226 224 224 225 228 229 226 223 222 223 223 224 226 227 228 229 231 233 236 238 240 240 238 238 239 238 238 239 243 247 247 243 244 246 246 246 245 244
206 210 213 216 217 217 216 215 214 218 222 226 226 226 225 225 224 224 225 227 229 231 233 233 232 231 231 229 226 225 227 227 223 221 223 225 227 228 230 231 233 234 235 236 237 239 241 240 239 239 242 244 245 249 253 253 250 250 253 255 254 253 252
218 222 224 225 224 224 224 221 217 217 222 227 228 229 229 228 227 226 227 228 230 231 234 236 236 236 236 236 233 229 227 229 229 226 224 223 225 228 230 233 237 240 241 241 241 241 242 242 242 241 243 246 249 252 254 254 253 252 252 253 254 255 254
227 229 230 230 228 225 223 222 219 217 220 226 229 230 232 232 230 229 229 229 230 231 233 236 237 237 237 238 239 237 233 232 235 235 232 227 225 226 228 230 233 238 241 244 245 245 245 245 245 245 246 248 250 253 254 254 253 253 252 251 251 253 255
229 230 230 227 224 221 218 217 218 217 217 222 227 229 232 234 234 234 232 230 230 231 234 236 237 237 237 237 239 239 237 235 235 237 237 234 230 229 229 230 231 234 238 241 244 246 247 247 247 247 248 249 251 253 254 255 255 255 255 253 251 251 252
227 229 227 224 220 218 216 217 218 218 218 220 222 225 228 230 232 234 235 233 231 232 234 237 238 239 239 238 237 237 238 236 235 236 238 239 237 236 236 235 235 235 237 238 241 244 246 248 248 248 248 249 249 251 253 255 256 256 256 255 254 252 251
221 223 225 224 222 220 219 220 221 223 224 225 224 224 226 227 229 233 237 236 234 234 235 237 239 241 242 242 239 238 238 239 239 241 242 242 242 241 240 239 239 239 239 239 240 242 244 246 248 249 249 249 249 250 250 251 253 254 254 255 255 254 253
217 219 222 224 224 223 222 222 223 226 228 230 231 230 231 232 234 236 238 238 237 236 236 238 240 242 244 245 243 242 242 242 244 244 241 240 241 241 240 239 238 238 239 240 240 240 241 244 246 248 249 250 251 251 251 250 251 251 252 253 254 255 254
218 220 222 223 224 224 224 223 223 226 228 230 232 233 234 236 237 238 239 240 239 238 238 239 240 242 244 244 244 245 245 244 243 241 238 237 238 239 239 237 236 235 236 238 239 240 241 243 244 246 248 250 252 254 255 255 254 253 253 253 253 254 255
219 222 225 227 226 225 223 222 222 224 227 230 232 234 235 235 236 236 237 237 237 237 237 237 238 240 242 242 241 242 241 240 238 236 235 235 236 237 239 239 238 237 237 238 240 241 242 243 244 246 248 249 251 253 256 258 259 258 258 257 256 255 256
217 222 224 227 229 227 224 223 223 224 227 230 232 234 234 234 234 234 235 235 235 234 234 234 235 236 238 238 238 238 238 238 237 236 235 236 236 237 239 241 242 242 242 241 241 242 242 243 244 245 247 249 250 251 253 256 258 259 260 260 260 259 258
221 225 228 229 231 232 231 230 231 230 231 232 232 233 234 235 236 236 237 238 238 238 237 236 235 235 235 236 237 238 238 238 238 238 238 239 239 239 241 243 245 246 246 245 244 243 243 244 245 246 248 249 250 250 251 252 253 255 256 257 258 259 259
226 229 233 234 236 238 239 240 240 239 238 238 237 237 237 237 238 239 240 241 242 242 242 241 240 238 237 237 237 237 238 237 238 239 240 241 241 242 242 244 245 246 247 248 247 246 246 246 247 248 249 249 250 250 251 251 251 252 253 254 255 256 257
230 231 233 235 237 239 240 241 242 242 241 241 241 241 240 239 239 240 241 241 243 244 245 246 246 244 242 241 240 239 238 238 238 238 239 240 241 242 242 243 244 245 247 248 249 250 250 249 249 248 249 249 250 251 251 252 252 253 253 254 254 255 255
239 238 237 237 239 241 242 243 243 243 243 242 243 244 244 243 242 242 243 243 243 244 245 246 248 248 247 246 245 244 243 242 241 240 240 240 240 241 241 241 242 243 245 247 249 251 251 251 251 250 249 250 251 252 253 253 253 254 254 254 255 255 255
246 245 244 242 243 244 245 245 247 248 247 246 246 246 246 247 246 246 246 246 246 245 245 245 247 248 249 249 249 249 248 247 246 244 243 243 243 243 243 243 243 244 245 246 248 249 250 251 251 251 251 251 252 252 253 253 254 254 255 255 256 256 256
251 251 250 248 247 248 248 248 249 250 250 249 248 248 247 247 247 248 249 250 250 249 248 247 247 248 249 250 250 251 250 250 249 248 247 246 246 246 247 247 247 247 247 247 247 248 248 249 251 252 253 253 252 252 252 253 254 254 255 255 256 257 257
252 254 255 255 253 252 251 249 248 248 248 248 248 248 248 247 246 246 247 249 251 252 252 252 251 250 250 250 251 251 251 251 251 250 250 249 248 247 247 248 248 249 249 250 249 248 248 249 250 252 253 253 252 252 253 253 253 254 254 255 256 256 257
250 251 254 256 258 258 257 254 252 250 249 248 246 246 246 246 246 245 244 246 248 250 251 253 252 252 252 253 253 253 253 253 252 253 253 252 251 250 249 248 248 249 250 251 251 250 250 250 251 251 252 252 253 253 253 253 253 253 254 254 255 256 256
253 252 252 253 256 259 261 261 260 258 256 255 252 249 248 247 247 247 246 246 247 248 249 251 251 251 251 252 252 253 253 253 254 254 255 255 254 253 252 251 250 249 250 251 252 252 252 252 252 252 252 252 253 253 254 254 254 253 253 254 254 254 255
259 258 258 257 256 257 259 260 261 260 260 259 258 255 253 251 251 250 249 248 247 247 248 249 250 250 251 251 252 252 253 253 254 254 254 254 255 255 256 255 253 252 251 251 252 253 254 254 254 254 254 254 254 254 254 254 255 254 254 254 254 254 254